| time (UTC) | temp F | wind direction | speed MPH | gust MPH | rain 1hr in | rain 24hr in | rain mn in | humidity % | barometer mb |
| 20260510093518 | 58 | 0.0 | 0.0 | 0.00 | 0.00 | 0.00 | 97 | 1013.7 | |
| 20260510093018 | 58 | 0.0 | 0.0 | 0.00 | 0.00 | 0.00 | 97 | 1013.7 | |
| 20260510092518 | 58 | 0.0 | 0.0 | 0.00 | 0.00 | 0.00 | 97 | 1013.6 | |
| 20260510092038 | 59 | 0.0 | 0.0 | 0.00 | 0.00 | 0.00 | 97 | 1013.4 | |
| 20260510091518 | 58 | 0.0 | 0.0 | 0.00 | 0.00 | 0.00 | 97 | 1013.4 | |
| 20260510091018 | 58 | 0.0 | 0.0 | 0.00 | 0.00 | 0.00 | 96 | 1013.4 | |
| 20260510090518 | 59 | 0.0 | 1.0 | 0.00 | 0.00 | 0.00 | 97 | 1013.2 | |
| 20260510090058 | 59 | 203 | 1.0 | 2.0 | 0.00 | 0.00 | 0.00 | 97 | 1013.0 |
| 20260510085538 | 59 | 0.0 | 1.0 | 0.00 | 0.00 | 0.00 | 97 | 1013.1 | |
| 20260510085038 | 59 | 0.0 | 0.0 | 0.00 | 0.00 | 0.00 | 97 | 1013.3 | |
| 20260510084518 | 59 | 0.0 | 0.0 | 0.00 | 0.00 | 0.00 | 97 | 1013.3 | |
| 20260510084039 | 59 | 0.0 | 0.0 | 0.00 | 0.00 | 0.00 | 97 | 1013.4 | |
| 20260510083538 | 59 | 0.0 | 0.0 | 0.00 | 0.00 | 0.00 | 96 | 1013.3 | |
| 20260510083018 | 60 | 0.0 | 0.0 | 0.00 | 0.00 | 0.00 | 97 | 1013.2 | |
| 20260510082518 | 60 | 0.0 | 0.0 | 0.00 | 0.00 | 0.00 | 96 | 1013.1 | |
| 20260510082018 | 60 | 0.0 | 0.0 | 0.00 | 0.00 | 0.00 | 96 | 1013.0 | |
| 20260510081520 | 60 | 0.0 | 0.0 | 0.00 | 0.00 | 0.00 | 96 | 1013.2 | |
| 20260510081020 | 60 | 0.0 | 0.0 | 0.00 | 0.00 | 0.00 | 96 | 1013.2 | |
| 20260510080520 | 60 | 0.0 | 0.0 | 0.00 | 0.00 | 0.00 | 96 | 1013.2 | |
| 20260510080020 | 60 | 0.0 | 0.0 | 0.00 | 0.00 | 0.00 | 96 | 1013.2 | |
| 20260510075520 | 60 | 0.0 | 0.0 | 0.00 | 0.00 | 0.00 | 96 | 1013.2 | |
| 20260510075020 | 60 | 0.0 | 0.0 | 0.00 | 0.00 | 0.00 | 96 | 1013.1 | |
| 20260510074519 | 60 | 0.0 | 0.0 | 0.00 | 0.00 | 0.00 | 96 | 1013.1 | |
| 20260510074040 | 60 | 0.0 | 0.0 | 0.00 | 0.00 | 0.00 | 96 | 1012.9 | |
| 20260510073538 | 60 | 0.0 | 0.0 | 0.00 | 0.00 | 0.00 | 96 | 1012.9 | |
| 20260510073020 | 60 | 0.0 | 0.0 | 0.00 | 0.00 | 0.00 | 96 | 1013.0 | |
| 20260510072520 | 61 | 0.0 | 0.0 | 0.00 | 0.00 | 0.00 | 96 | 1013.0 | |
| 20260510072040 | 61 | 0.0 | 0.0 | 0.00 | 0.00 | 0.00 | 96 | 1013.0 | |
| 20260510071600 | 61 | 0.0 | 0.0 | 0.00 | 0.00 | 0.00 | 96 | 1013.1 | |
| 20260510071019 | 61 | 0.0 | 0.0 | 0.00 | 0.00 | 0.00 | 96 | 1013.1 | |
| 20260510070519 | 61 | 0.0 | 0.0 | 0.00 | 0.00 | 0.00 | 96 | 1013.1 | |
| 20260510070019 | 60 | 0.0 | 0.0 | 0.00 | 0.00 | 0.00 | 96 | 1013.1 | |
| 20260510065519 | 61 | 0.0 | 0.0 | 0.00 | 0.00 | 0.00 | 96 | 1013.1 | |
| 20260510065019 | 61 | 0.0 | 0.0 | 0.00 | 0.00 | 0.00 | 95 | 1013.0 | |
| 20260510064520 | 61 | 0.0 | 0.0 | 0.00 | 0.00 | 0.00 | 95 | 1013.0 | |
| 20260510064019 | 62 | 0.0 | 0.0 | 0.00 | 0.00 | 0.00 | 96 | 1013.0 | |
| 20260510063519 | 62 | 0.0 | 1.0 | 0.00 | 0.00 | 0.00 | 95 | 1013.0 | |
| 20260510063019 | 63 | 0.0 | 3.0 | 0.00 | 0.00 | 0.00 | 96 | 1012.8 | |
| 20260510062539 | 63 | 0.0 | 0.0 | 0.00 | 0.00 | 0.00 | 96 | 1012.9 | |
| 20260510062019 | 63 | 0.0 | 0.0 | 0.00 | 0.00 | 0.00 | 95 | 1012.8 | |
| 20260510061519 | 63 | 0.0 | 0.0 | 0.00 | 0.00 | 0.00 | 95 | 1012.8 | |
| 20260510061040 | 63 | 0.0 | 1.0 | 0.00 | 0.00 | 0.00 | 95 | 1012.8 | |
| 20260510060539 | 63 | 0.0 | 0.0 | 0.00 | 0.00 | 0.00 | 95 | 1012.9 | |
| 20260510060059 | 63 | 0.0 | 0.0 | 0.00 | 0.00 | 0.00 | 95 | 1012.9 | |
| 20260510055519 | 63 | 0.0 | 3.0 | 0.00 | 0.00 | 0.00 | 95 | 1012.9 | |
| 20260510055019 | 64 | 0.0 | 3.0 | 0.00 | 0.00 | 0.00 | 94 | 1013.0 | |
| 20260510054519 | 64 | 0.0 | 2.0 | 0.00 | 0.00 | 0.00 | 95 | 1012.9 | |
| 20260510054019 | 64 | 203 | 1.0 | 2.0 | 0.00 | 0.00 | 0.00 | 95 | 1013.0 |
| 20260510053519 | 64 | 203 | 1.0 | 2.0 | 0.00 | 0.00 | 0.00 | 95 | 1013.1 |
| 20260510053019 | 64 | 203 | 1.0 | 2.0 | 0.00 | 0.00 | 0.00 | 95 | 1012.9 |
| 20260510052519 | 64 | 0.0 | 1.0 | 0.00 | 0.00 | 0.00 | 95 | 1012.9 | |
| 20260510052019 | 64 | 0.0 | 1.0 | 0.00 | 0.00 | 0.00 | 95 | 1012.9 | |
| 20260510051519 | 64 | 0.0 | 1.0 | 0.00 | 0.00 | 0.00 | 95 | 1013.0 | |
| 20260510051100 | 64 | 0.0 | 0.0 | 0.00 | 0.00 | 0.00 | 95 | 1012.9 | |
| 20260510050519 | 64 | 0.0 | 0.0 | 0.00 | 0.00 | 0.00 | 94 | 1012.9 | |
| 20260510050019 | 64 | 0.0 | 0.0 | 0.00 | 0.00 | 0.00 | 94 | 1012.9 | |
| 20260510045519 | 64 | 0.0 | 1.0 | 0.00 | 0.00 | 0.00 | 94 | 1012.8 | |
| 20260510045020 | 64 | 0.0 | 0.0 | 0.00 | 0.00 | 0.00 | 94 | 1012.8 | |
| 20260510044539 | 64 | 0.0 | 2.0 | 0.00 | 0.00 | 0.00 | 93 | 1012.8 | |
| 20260510044019 | 65 | 0.0 | 1.0 | 0.00 | 0.00 | 0.00 | 93 | 1012.8 | |
| 20260510043519 | 65 | 0.0 | 2.0 | 0.00 | 0.00 | 0.00 | 92 | 1012.8 | |
| 20260510043020 | 65 | 0.0 | 3.0 | 0.00 | 0.00 | 0.00 | 92 | 1012.7 | |
| 20260510042519 | 65 | 0.0 | 2.0 | 0.00 | 0.00 | 0.00 | 92 | 1012.7 | |
| 20260510042020 | 65 | 203 | 1.0 | 2.0 | 0.00 | 0.00 | 0.00 | 92 | 1012.7 |
| 20260510041519 | 66 | 0.0 | 2.0 | 0.00 | 0.00 | 0.00 | 92 | 1012.7 | |
| 20260510041040 | 65 | 0.0 | 1.0 | 0.00 | 0.00 | 0.00 | 92 | 1012.7 | |
| 20260510040519 | 66 | 203 | 1.0 | 2.0 | 0.00 | 0.00 | 0.00 | 93 | 1012.8 |
| 20260510040019 | 65 | 203 | 1.0 | 3.0 | 0.00 | 0.00 | 0.00 | 94 | 1012.8 |
| 20260510035519 | 65 | 203 | 1.0 | 2.0 | 0.00 | 0.00 | 0.00 | 94 | 1012.9 |
| 20260510035019 | 65 | 0.0 | 1.0 | 0.00 | 0.00 | 0.00 | 94 | 1012.9 | |
| 20260510034519 | 65 | 0.0 | 1.0 | 0.00 | 0.00 | 0.00 | 94 | 1013.0 | |
| 20260510034019 | 64 | 0.0 | 0.0 | 0.00 | 0.00 | 0.00 | 94 | 1013.0 | |
| 20260510033519 | 64 | 0.0 | 3.0 | 0.00 | 0.00 | 0.00 | 95 | 1013.0 | |
| 20260510033019 | 64 | 0.0 | 0.0 | 0.00 | 0.00 | 0.00 | 94 | 1013.0 | |
| 20260510032519 | 64 | 0.0 | 0.0 | 0.00 | 0.00 | 0.00 | 94 | 1013.0 | |
| 20260510032019 | 64 | 0.0 | 0.0 | 0.00 | 0.00 | 0.00 | 94 | 1013.0 | |
| 20260510031519 | 64 | 0.0 | 0.0 | 0.00 | 0.00 | 0.00 | 94 | 1013.0 | |
| 20260510031019 | 64 | 0.0 | 0.0 | 0.00 | 0.00 | 0.00 | 94 | 1012.8 | |
| 20260510030519 | 64 | 0.0 | 0.0 | 0.00 | 0.00 | 0.00 | 94 | 1012.8 | |
| 20260510030019 | 64 | 0.0 | 0.0 | 0.00 | 0.00 | 0.00 | 94 | 1012.7 | |
| 20260510025519 | 64 | 0.0 | 0.0 | 0.00 | 0.00 | 0.00 | 93 | 1012.7 | |
| 20260510025019 | 64 | 0.0 | 0.0 | 0.00 | 0.00 | 0.00 | 93 | 1012.7 | |
| 20260510024519 | 64 | 0.0 | 0.0 | 0.00 | 0.00 | 0.00 | 93 | 1012.6 | |
| 20260510024019 | 65 | 0.0 | 0.0 | 0.00 | 0.00 | 0.00 | 93 | 1012.6 | |
| 20260510023519 | 65 | 0.0 | 0.0 | 0.00 | 0.00 | 0.00 | 93 | 1012.5 | |
| 20260510023019 | 65 | 0.0 | 0.0 | 0.00 | 0.00 | 0.00 | 93 | 1012.4 | |
| 20260510022519 | 65 | 0.0 | 0.0 | 0.00 | 0.00 | 0.00 | 93 | 1012.3 | |
| 20260510022019 | 65 | 0.0 | 0.0 | 0.00 | 0.00 | 0.00 | 92 | 1012.2 | |
| 20260510021539 | 66 | 0.0 | 0.0 | 0.00 | 0.00 | 0.00 | 92 | 1012.1 | |
| 20260510021052 | 66 | 0.0 | 0.0 | 0.00 | 0.00 | 0.00 | 92 | 1012.1 | |
| 20260510020957 | 65 | 196 | 0.0 | 0.0 | 0.00 | 0.00 | 0.00 | 92 | 1012.0 |
| 20260510020019 | 66 | 0.0 | 0.0 | 0.00 | 0.00 | 0.00 | 91 | 1011.9 | |
| 20260510015519 | 66 | 0.0 | 0.0 | 0.00 | 0.00 | 0.00 | 90 | 1011.8 | |
| 20260510015019 | 67 | 0.0 | 0.0 | 0.00 | 0.00 | 0.00 | 90 | 1011.7 | |
| 20260510014519 | 67 | 0.0 | 0.0 | 0.00 | 0.00 | 0.00 | 89 | 1011.7 | |
| 20260510014019 | 68 | 0.0 | 0.0 | 0.00 | 0.00 | 0.00 | 89 | 1011.5 | |
| 20260510013519 | 68 | 0.0 | 0.0 | 0.00 | 0.00 | 0.00 | 88 | 1011.4 | |
| 20260510013039 | 68 | 0.0 | 0.0 | 0.00 | 0.00 | 0.00 | 88 | 1011.3 | |
| 20260510012519 | 69 | 0.0 | 0.0 | 0.00 | 0.00 | 0.00 | 88 | 1011.2 | |
| 20260510012059 | 69 | 0.0 | 0.0 | 0.00 | 0.00 | 0.00 | 87 | 1011.2 | |
| 20260510011539 | 70 | 0.0 | 3.0 | 0.00 | 0.00 | 0.00 | 85 | 1011.1 | |
| 20260510011019 | 70 | 0.0 | 0.0 | 0.00 | 0.00 | 0.00 | 85 | 1011.1 | |
| 20260510010519 | 71 | 0.0 | 0.0 | 0.00 | 0.00 | 0.00 | 85 | 1010.9 | |
| 20260510010019 | 71 | 0.0 | 0.0 | 0.00 | 0.00 | 0.00 | 84 | 1010.8 | |
| 20260510005519 | 71 | 0.0 | 1.0 | 0.00 | 0.00 | 0.00 | 84 | 1010.7 | |
| 20260510005019 | 72 | 0.0 | 1.0 | 0.00 | 0.00 | 0.00 | 81 | 1010.6 | |
| 20260510004519 | 73 | 0.0 | 1.0 | 0.00 | 0.00 | 0.00 | 77 | 1010.6 | |
| 20260510004019 | 73 | 203 | 1.0 | 2.0 | 0.00 | 0.00 | 0.00 | 76 | 1010.4 |
| 20260510003539 | 74 | 203 | 1.0 | 2.0 | 0.00 | 0.00 | 0.00 | 76 | 1010.4 |
| 20260510003019 | 75 | 203 | 1.0 | 2.0 | 0.00 | 0.00 | 0.00 | 73 | 1010.4 |
| 20260510002539 | 76 | 0.0 | 0.0 | 0.00 | 0.00 | 0.00 | 71 | 1010.2 | |
| 20260510002018 | 77 | 0.0 | 0.0 | 0.00 | 0.00 | 0.00 | 70 | 1010.2 | |
| 20260510001519 | 77 | 0.0 | 1.0 | 0.00 | 0.00 | 0.00 | 70 | 1010.1 | |
| 20260510001019 | 78 | 203 | 1.0 | 2.0 | 0.00 | 0.00 | 0.00 | 67 | 1010.1 |
| 20260510000518 | 78 | 203 | 1.0 | 3.0 | 0.00 | 0.00 | 0.00 | 66 | 1010.2 |
| 20260510000019 | 78 | 203 | 1.0 | 3.0 | 0.00 | 0.00 | 0.00 | 67 | 1010.2 |
| 20260509235539 | 79 | 203 | 1.0 | 3.0 | 0.00 | 0.00 | 0.00 | 65 | 1010.1 |
| 20260509235029 | 79 | 180 | 1.0 | 3.0 | 0.00 | 0.00 | 0.00 | 64 | 1010.0 |
| 20260509234039 | 80 | 180 | 1.0 | 3.0 | 0.00 | 0.00 | 0.00 | 65 | 1009.9 |
| 20260509233519 | 80 | 180 | 1.0 | 3.0 | 0.00 | 0.00 | 0.00 | 62 | 1010.0 |
| 20260509233018 | 80 | 0.0 | 2.0 | 0.00 | 0.00 | 0.00 | 66 | 1010.0 | |
| 20260509232519 | 80 | 180 | 1.0 | 2.0 | 0.00 | 0.00 | 0.00 | 64 | 1010.0 |
| 20260509232059 | 80 | 0.0 | 2.0 | 0.00 | 0.00 | 0.00 | 63 | 1010.1 | |
| 20260509231539 | 80 | 180 | 1.0 | 3.0 | 0.00 | 0.00 | 0.00 | 64 | 1010.1 |
| 20260509231018 | 80 | 180 | 1.0 | 3.0 | 0.00 | 0.00 | 0.00 | 63 | 1010.1 |
| 20260509230518 | 80 | 180 | 2.0 | 4.0 | 0.00 | 0.00 | 0.00 | 65 | 1010.0 |
| 20260509230019 | 80 | 180 | 1.0 | 4.0 | 0.00 | 0.00 | 0.00 | 64 | 1010.0 |
| 20260509225538 | 80 | 158 | 2.0 | 5.0 | 0.00 | 0.00 | 0.00 | 66 | 1010.1 |
| 20260509225018 | 80 | 180 | 2.0 | 5.0 | 0.00 | 0.00 | 0.00 | 64 | 1010.1 |
| 20260509224518 | 80 | 180 | 2.0 | 4.0 | 0.00 | 0.00 | 0.00 | 67 | 1010.1 |
| 20260509224018 | 80 | 158 | 2.0 | 5.0 | 0.00 | 0.00 | 0.00 | 65 | 1010.0 |
| 20260509223518 | 80 | 158 | 2.0 | 5.0 | 0.00 | 0.00 | 0.00 | 64 | 1009.9 |
| 20260509223019 | 80 | 180 | 3.0 | 5.0 | 0.00 | 0.00 | 0.00 | 65 | 1009.9 |
| 20260509222518 | 80 | 180 | 1.0 | 3.0 | 0.00 | 0.00 | 0.00 | 65 | 1009.7 |
| 20260509222050 | 80 | 180 | 2.0 | 6.0 | 0.00 | 0.00 | 0.00 | 66 | 1009.7 |
| 20260509222003 | 80 | 172 | 4.0 | 5.0 | 0.00 | 0.00 | 0.00 | 66 | 1009.5 |
| 20260509221019 | 79 | 293 | 1.0 | 2.0 | 0.00 | 0.00 | 0.00 | 66 | 1009.7 |
| 20260509220538 | 79 | 293 | 1.0 | 3.0 | 0.00 | 0.00 | 0.00 | 65 | 1009.7 |
| 20260509220038 | 79 | 293 | 2.0 | 4.0 | 0.00 | 0.00 | 0.00 | 67 | 1009.7 |
| 20260509215518 | 79 | 315 | 2.0 | 3.0 | 0.00 | 0.00 | 0.00 | 67 | 1009.6 |
| 20260509215018 | 79 | 315 | 1.0 | 2.0 | 0.00 | 0.00 | 0.00 | 66 | 1009.5 |
| 20260509214538 | 79 | 315 | 2.0 | 4.0 | 0.00 | 0.00 | 0.00 | 65 | 1009.6 |
| 20260509214018 | 79 | 293 | 3.0 | 5.0 | 0.00 | 0.00 | 0.00 | 66 | 1009.8 |
| 20260509213538 | 80 | 270 | 3.0 | 6.0 | 0.00 | 0.00 | 0.00 | 63 | 1009.9 |
| 20260509213018 | 80 | 270 | 3.0 | 5.0 | 0.00 | 0.00 | 0.00 | 65 | 1009.9 |
| 20260509212518 | 79 | 293 | 4.0 | 7.0 | 0.00 | 0.00 | 0.00 | 65 | 1010.0 |
| 20260509212018 | 79 | 270 | 2.0 | 3.0 | 0.00 | 0.00 | 0.00 | 68 | 1010.0 |
| 20260509211518 | 79 | 203 | 2.0 | 5.0 | 0.00 | 0.00 | 0.00 | 65 | 1010.0 |
| 20260509211038 | 80 | 338 | 1.0 | 6.0 | 0.00 | 0.00 | 0.00 | 63 | 1010.0 |
| 20260509210518 | 80 | 248 | 2.0 | 4.0 | 0.00 | 0.00 | 0.00 | 64 | 1010.1 |
| 20260509210018 | 80 | 225 | 2.0 | 3.0 | 0.00 | 0.00 | 0.00 | 64 | 1010.1 |
| 20260509205518 | 80 | 135 | 1.0 | 5.0 | 0.00 | 0.00 | 0.00 | 65 | 1010.1 |
| 20260509205018 | 79 | 225 | 2.0 | 3.0 | 0.00 | 0.00 | 0.00 | 64 | 1010.0 |
| 20260509204538 | 80 | 293 | 3.0 | 6.0 | 0.00 | 0.00 | 0.00 | 66 | 1010.2 |
| 20260509204018 | 79 | 315 | 2.0 | 5.0 | 0.00 | 0.00 | 0.00 | 66 | 1010.1 |
| 20260509203521 | 79 | 270 | 4.0 | 9.0 | 0.00 | 0.00 | 0.00 | 66 | 1010.3 |
| 20260509203018 | 80 | 180 | 1.0 | 4.0 | 0.00 | 0.00 | 0.00 | 65 | 1010.4 |
| 20260509202518 | 79 | 135 | 3.0 | 5.0 | 0.00 | 0.00 | 0.00 | 68 | 1010.4 |
| 20260509202111 | 78 | 130 | 3.0 | 8.0 | 0.00 | 0.00 | 0.00 | 68 | 1010.2 |
| 20260509202023 | 78 | 135 | 3.0 | 5.0 | 0.00 | 0.00 | 0.00 | 72 | 1010.4 |
| 20260509201559 | 77 | 158 | 3.0 | 8.0 | 0.00 | 0.00 | 0.00 | 72 | 1010.6 |
| 20260509201019 | 77 | 158 | 3.0 | 6.0 | 0.00 | 0.00 | 0.00 | 71 | 1010.5 |
| 20260509200518 | 77 | 203 | 1.0 | 5.0 | 0.00 | 0.00 | 0.00 | 69 | 1010.6 |
| 20260509200018 | 77 | 180 | 2.0 | 4.0 | 0.00 | 0.00 | 0.00 | 69 | 1010.7 |
| 20260509195518 | 78 | 135 | 2.0 | 5.0 | 0.00 | 0.00 | 0.00 | 69 | 1010.6 |
| 20260509195020 | 78 | 180 | 2.0 | 6.0 | 0.00 | 0.00 | 0.00 | 67 | 1010.6 |
| 20260509194518 | 78 | 180 | 1.0 | 4.0 | 0.00 | 0.00 | 0.00 | 69 | 1010.6 |
| 20260509194020 | 78 | 180 | 4.0 | 7.0 | 0.00 | 0.00 | 0.00 | 66 | 1010.7 |
| 20260509193520 | 79 | 135 | 5.0 | 10.0 | 0.00 | 0.00 | 0.00 | 63 | 1010.7 |
| 20260509193020 | 80 | 270 | 1.0 | 3.0 | 0.00 | 0.00 | 0.00 | 63 | 1010.8 |
| 20260509192520 | 79 | 270 | 2.0 | 4.0 | 0.00 | 0.00 | 0.00 | 65 | 1010.8 |
| 20260509192020 | 79 | 248 | 3.0 | 7.0 | 0.00 | 0.00 | 0.00 | 65 | 1010.7 |
| 20260509191520 | 79 | 270 | 4.0 | 9.0 | 0.00 | 0.00 | 0.00 | 66 | 1010.8 |
| 20260509191020 | 80 | 248 | 3.0 | 9.0 | 0.00 | 0.00 | 0.00 | 64 | 1010.8 |
| 20260509190519 | 79 | 293 | 3.0 | 8.0 | 0.00 | 0.00 | 0.00 | 64 | 1010.9 |
| 20260509190020 | 79 | 248 | 4.0 | 8.0 | 0.00 | 0.00 | 0.00 | 65 | 1010.9 |
| 20260509185519 | 79 | 225 | 4.0 | 6.0 | 0.00 | 0.00 | 0.00 | 65 | 1010.9 |
| 20260509185020 | 79 | 248 | 3.0 | 7.0 | 0.00 | 0.00 | 0.00 | 66 | 1010.8 |
| 20260509184520 | 78 | 248 | 3.0 | 7.0 | 0.00 | 0.00 | 0.00 | 63 | 1010.9 |
| 20260509184100 | 79 | 203 | 3.0 | 9.0 | 0.00 | 0.00 | 0.00 | 70 | 1010.9 |
| 20260509183520 | 79 | 225 | 4.0 | 8.0 | 0.00 | 0.00 | 0.00 | 68 | 1011.0 |
| 20260509183019 | 79 | 293 | 2.0 | 7.0 | 0.00 | 0.00 | 0.00 | 65 | 1011.0 |
| 20260509182600 | 79 | 293 | 1.0 | 3.0 | 0.00 | 0.00 | 0.00 | 65 | 1010.9 |
| 20260509182019 | 79 | 293 | 1.0 | 3.0 | 0.00 | 0.00 | 0.00 | 60 | 1011.0 |
| 20260509181520 | 78 | 293 | 1.0 | 3.0 | 0.00 | 0.00 | 0.00 | 65 | 1011.0 |
| 20260509181019 | 77 | 293 | 2.0 | 5.0 | 0.00 | 0.00 | 0.00 | 64 | 1011.1 |
| 20260509180540 | 77 | 293 | 3.0 | 5.0 | 0.00 | 0.00 | 0.00 | 65 | 1011.1 |
| 20260509180019 | 78 | 315 | 3.0 | 5.0 | 0.00 | 0.00 | 0.00 | 64 | 1011.2 |
| 20260509175519 | 77 | 293 | 2.0 | 4.0 | 0.00 | 0.00 | 0.00 | 66 | 1011.2 |
| 20260509175039 | 77 | 315 | 1.0 | 2.0 | 0.00 | 0.00 | 0.00 | 64 | 1011.3 |
| 20260509174519 | 77 | 315 | 2.0 | 4.0 | 0.00 | 0.00 | 0.00 | 65 | 1011.4 |
| 20260509174019 | 78 | 23 | 3.0 | 5.0 | 0.00 | 0.00 | 0.00 | 65 | 1011.4 |
| 20260509173519 | 78 | 135 | 1.0 | 3.0 | 0.00 | 0.00 | 0.00 | 66 | 1011.3 |
| 20260509173019 | 78 | 135 | 3.0 | 7.0 | 0.00 | 0.00 | 0.00 | 68 | 1011.4 |
| 20260509172519 | 77 | 113 | 3.0 | 6.0 | 0.00 | 0.00 | 0.00 | 65 | 1011.4 |
| 20260509172040 | 78 | 113 | 3.0 | 6.0 | 0.00 | 0.00 | 0.00 | 63 | 1011.6 |
| 20260509171519 | 77 | 113 | 4.0 | 8.0 | 0.00 | 0.00 | 0.00 | 63 | 1011.6 |
| 20260509171022 | 77 | 90 | 2.0 | 4.0 | 0.00 | 0.00 | 0.00 | 64 | 1011.5 |
| 20260509170539 | 76 | 90 | 2.0 | 4.0 | 0.00 | 0.00 | 0.00 | 64 | 1011.5 |
| 20260509170019 | 76 | 338 | 2.0 | 4.0 | 0.00 | 0.00 | 0.00 | 65 | 1011.5 |
| 20260509165601 | 77 | 315 | 2.0 | 5.0 | 0.00 | 0.00 | 0.00 | 71 | 1011.6 |
| 20260509165039 | 76 | 293 | 3.0 | 6.0 | 0.00 | 0.00 | 0.00 | 70 | 1011.5 |
| 20260509164519 | 76 | 293 | 4.0 | 7.0 | 0.00 | 0.00 | 0.00 | 65 | 1011.5 |
| 20260509164019 | 76 | 68 | 2.0 | 6.0 | 0.00 | 0.00 | 0.00 | 66 | 1011.5 |
| 20260509163519 | 76 | 0 | 2.0 | 5.0 | 0.00 | 0.00 | 0.00 | 65 | 1011.4 |
| 20260509163019 | 76 | 0 | 1.0 | 4.0 | 0.00 | 0.00 | 0.00 | 65 | 1011.5 |
| 20260509162539 | 76 | 0 | 2.0 | 8.0 | 0.00 | 0.00 | 0.00 | 65 | 1011.4 |
| 20260509162059 | 75 | 270 | 3.0 | 6.0 | 0.00 | 0.00 | 0.00 | 68 | 1011.5 |
| 20260509161519 | 75 | 293 | 4.0 | 7.0 | 0.00 | 0.00 | 0.00 | 65 | 1011.6 |
| 20260509161039 | 75 | 293 | 3.0 | 7.0 | 0.00 | 0.00 | 0.00 | 65 | 1011.6 |
| 20260509160519 | 75 | 293 | 2.0 | 3.0 | 0.00 | 0.00 | 0.00 | 71 | 1011.7 |
| 20260509160019 | 75 | 293 | 1.0 | 2.0 | 0.00 | 0.00 | 0.00 | 69 | 1011.5 |
| 20260509155519 | 74 | 293 | 1.0 | 2.0 | 0.00 | 0.00 | 0.00 | 68 | 1011.5 |
| 20260509155019 | 74 | 293 | 3.0 | 7.0 | 0.00 | 0.00 | 0.00 | 67 | 1011.6 |
| 20260509154519 | 74 | 0 | 3.0 | 10.0 | 0.00 | 0.00 | 0.00 | 70 | 1011.5 |
| 20260509154019 | 75 | 0 | 3.0 | 8.0 | 0.00 | 0.00 | 0.00 | 69 | 1011.5 |
| 20260509153519 | 74 | 23 | 1.0 | 2.0 | 0.00 | 0.00 | 0.00 | 71 | 1011.3 |
| 20260509153019 | 73 | 0 | 2.0 | 5.0 | 0.00 | 0.00 | 0.00 | 72 | 1011.4 |
| 20260509152539 | 73 | 315 | 2.0 | 5.0 | 0.00 | 0.00 | 0.00 | 73 | 1011.3 |
| 20260509152039 | 73 | 338 | 2.0 | 5.0 | 0.00 | 0.00 | 0.00 | 77 | 1011.2 |
| 20260509151518 | 72 | 338 | 1.0 | 4.0 | 0.00 | 0.00 | 0.00 | 76 | 1011.1 |
| 20260509151019 | 72 | 338 | 2.0 | 4.0 | 0.00 | 0.00 | 0.00 | 77 | 1011.1 |
| 20260509150519 | 72 | 270 | 2.0 | 4.0 | 0.00 | 0.00 | 0.00 | 78 | 1011.1 |
| 20260509150019 | 72 | 315 | 3.0 | 8.0 | 0.00 | 0.00 | 0.00 | 78 | 1011.0 |
| 20260509145519 | 71 | 293 | 3.0 | 4.0 | 0.00 | 0.00 | 0.00 | 80 | 1011.0 |
| 20260509145019 | 71 | 293 | 4.0 | 7.0 | 0.00 | 0.00 | 0.00 | 81 | 1011.0 |
| 20260509144519 | 70 | 293 | 2.0 | 8.0 | 0.00 | 0.00 | 0.00 | 82 | 1011.0 |
| 20260509144019 | 70 | 293 | 3.0 | 7.0 | 0.00 | 0.00 | 0.00 | 83 | 1011.1 |
| 20260509143519 | 69 | 293 | 2.0 | 5.0 | 0.00 | 0.00 | 0.00 | 84 | 1011.0 |
| 20260509143019 | 69 | 225 | 2.0 | 6.0 | 0.00 | 0.00 | 0.00 | 86 | 1011.0 |
| 20260509142539 | 68 | 315 | 2.0 | 4.0 | 0.00 | 0.00 | 0.00 | 88 | 1011.1 |
| 20260509142310 | 67 | 305 | 2.0 | 6.0 | 0.00 | 0.00 | 0.00 | 88 | 1010.9 |
| 20260509142029 | 67 | 293 | 2.0 | 4.0 | 0.00 | 0.00 | 0.00 | 88 | 1011.1 |
| 20260509141539 | 67 | 270 | 3.0 | 7.0 | 0.00 | 0.00 | 0.00 | 89 | 1011.1 |
| 20260509141018 | 67 | 270 | 2.0 | 8.0 | 0.00 | 0.00 | 0.00 | 91 | 1011.1 |
| 20260509140519 | 66 | 180 | 3.0 | 8.0 | 0.00 | 0.00 | 0.00 | 90 | 1011.1 |
| 20260509140019 | 65 | 225 | 3.0 | 8.0 | 0.00 | 0.00 | 0.00 | 92 | 1011.2 |
| 20260509135518 | 65 | 180 | 3.0 | 6.0 | 0.00 | 0.00 | 0.00 | 93 | 1011.2 |
| 20260509135019 | 64 | 293 | 2.0 | 5.0 | 0.00 | 0.00 | 0.00 | 93 | 1011.2 |
| 20260509134538 | 64 | 293 | 2.0 | 5.0 | 0.00 | 0.00 | 0.00 | 95 | 1011.1 |
| 20260509134018 | 63 | 270 | 1.0 | 5.0 | 0.00 | 0.00 | 0.00 | 95 | 1011.0 |
| 20260509133519 | 62 | 293 | 2.0 | 6.0 | 0.00 | 0.00 | 0.00 | 96 | 1010.9 |
| 20260509133018 | 62 | 248 | 2.0 | 6.0 | 0.00 | 0.00 | 0.00 | 96 | 1011.1 |
| 20260509132518 | 61 | 270 | 3.0 | 7.0 | 0.00 | 0.00 | 0.00 | 96 | 1011.2 |
| 20260509132018 | 61 | 180 | 3.0 | 6.0 | 0.00 | 0.00 | 0.00 | 96 | 1011.3 |
| 20260509131539 | 61 | 225 | 2.0 | 6.0 | 0.00 | 0.00 | 0.00 | 97 | 1011.3 |
| 20260509131018 | 61 | 180 | 2.0 | 6.0 | 0.00 | 0.00 | 0.00 | 96 | 1011.3 |
| 20260509130518 | 60 | 180 | 2.0 | 6.0 | 0.00 | 0.00 | 0.00 | 96 | 1011.4 |
| 20260509130018 | 60 | 158 | 2.0 | 5.0 | 0.00 | 0.00 | 0.00 | 96 | 1011.5 |
| 20260509125518 | 60 | 158 | 2.0 | 4.0 | 0.00 | 0.00 | 0.00 | 97 | 1011.5 |
| 20260509125018 | 59 | 225 | 2.0 | 5.0 | 0.00 | 0.00 | 0.00 | 97 | 1011.4 |
| 20260509124518 | 59 | 158 | 3.0 | 5.0 | 0.00 | 0.00 | 0.00 | 97 | 1011.4 |
| 20260509124018 | 59 | 158 | 3.0 | 6.0 | 0.00 | 0.00 | 0.00 | 97 | 1011.4 |
| 20260509123539 | 58 | 158 | 3.0 | 6.0 | 0.00 | 0.00 | 0.00 | 97 | 1011.4 |
| 20260509123018 | 58 | 158 | 2.0 | 5.0 | 0.00 | 0.00 | 0.00 | 97 | 1011.5 |
| 20260509122518 | 58 | 180 | 2.0 | 6.0 | 0.00 | 0.00 | 0.00 | 97 | 1011.4 |
| 20260509122018 | 58 | 0.0 | 2.0 | 0.00 | 0.00 | 0.00 | 97 | 1011.3 | |
| 20260509121559 | 58 | 0.0 | 2.0 | 0.00 | 0.00 | 0.00 | 97 | 1011.2 | |
| 20260509121018 | 57 | 0.0 | 0.0 | 0.00 | 0.00 | 0.00 | 97 | 1011.0 | |
| 20260509120538 | 56 | 0.0 | 0.0 | 0.00 | 0.00 | 0.00 | 97 | 1010.9 | |
| 20260509120018 | 56 | 0.0 | 0.0 | 0.00 | 0.00 | 0.00 | 97 | 1010.8 | |
| 20260509115518 | 56 | 180 | 1.0 | 3.0 | 0.00 | 0.00 | 0.00 | 97 | 1010.8 |
| 20260509115018 | 57 | 180 | 2.0 | 5.0 | 0.00 | 0.00 | 0.00 | 97 | 1011.0 |
| 20260509114518 | 56 | 158 | 3.0 | 5.0 | 0.00 | 0.00 | 0.00 | 97 | 1011.1 |
| 20260509114018 | 56 | 180 | 3.0 | 5.0 | 0.00 | 0.00 | 0.00 | 97 | 1011.1 |
| 20260509113518 | 54 | 180 | 3.0 | 6.0 | 0.00 | 0.00 | 0.00 | 97 | 1011.0 |
| 20260509113059 | 54 | 248 | 1.0 | 2.0 | 0.00 | 0.00 | 0.00 | 97 | 1010.9 |
| 20260509112518 | 54 | 0.0 | 0.0 | 0.00 | 0.00 | 0.00 | 97 | 1010.8 | |
| 20260509112018 | 54 | 0.0 | 0.0 | 0.00 | 0.00 | 0.00 | 96 | 1010.5 | |
| 20260509111518 | 53 | 0.0 | 1.0 | 0.00 | 0.00 | 0.00 | 96 | 1010.5 | |
| 20260509111018 | 54 | 0.0 | 0.0 | 0.00 | 0.00 | 0.00 | 96 | 1010.5 | |
| 20260509110518 | 54 | 0.0 | 0.0 | 0.00 | 0.00 | 0.00 | 97 | 1010.4 | |
| 20260509110018 | 54 | 0.0 | 0.0 | 0.00 | 0.00 | 0.00 | 96 | 1010.3 | |
| 20260509105538 | 54 | 0.0 | 0.0 | 0.00 | 0.00 | 0.00 | 96 | 1010.3 | |
| 20260509105018 | 54 | 0.0 | 1.0 | 0.00 | 0.00 | 0.00 | 96 | 1010.4 | |
| 20260509104538 | 54 | 248 | 1.0 | 2.0 | 0.00 | 0.00 | 0.00 | 96 | 1010.4 |
| 20260509104018 | 54 | 0.0 | 1.0 | 0.00 | 0.00 | 0.00 | 96 | 1010.4 | |
| 20260509103518 | 54 | 0.0 | 1.0 | 0.00 | 0.00 | 0.00 | 96 | 1010.3 | |
| 20260509103018 | 54 | 0.0 | 2.0 | 0.00 | 0.00 | 0.00 | 96 | 1010.3 | |
| 20260509102538 | 54 | 180 | 1.0 | 2.0 | 0.00 | 0.00 | 0.00 | 96 | 1010.3 |
| 20260509102018 | 54 | 180 | 1.0 | 2.0 | 0.00 | 0.00 | 0.00 | 96 | 1010.2 |
| 20260509101538 | 54 | 0.0 | 2.0 | 0.00 | 0.00 | 0.00 | 96 | 1010.2 | |
| 20260509101018 | 54 | 180 | 1.0 | 2.0 | 0.00 | 0.00 | 0.00 | 96 | 1010.1 |
| 20260509100517 | 54 | 0.0 | 0.0 | 0.00 | 0.00 | 0.00 | 96 | 1010.2 | |
| 20260509100018 | 54 | 0.0 | 0.0 | 0.00 | 0.00 | 0.00 | 96 | 1010.0 | |
| 20260509095540 | 54 | 0.0 | 0.0 | 0.00 | 0.00 | 0.00 | 96 | 1010.1 | |
| 20260509095020 | 54 | 0.0 | 0.0 | 0.00 | 0.00 | 0.00 | 96 | 1010.1 | |
| 20260509094520 | 55 | 180 | 1.0 | 2.0 | 0.00 | 0.00 | 0.00 | 96 | 1010.2 |
| 20260509094019 | 55 | 0.0 | 1.0 | 0.00 | 0.00 | 0.00 | 96 | 1010.1 |